www.pogodaiklimat.ru

Погода и климат >> Архив погоды >> Украина >> Золочев


ПОГОДА в Золочеве

  • Прогноз погоды в Золочеве
  • Монитор погоды в Золочеве

АРХИВ ПОГОДЫ в Золочеве

Время (UTC), дата Ветер
(напр.,м/с)
 
Видим.   Явления Облачность Т
(С)
Тd
(С)
f
(%)
Тe
(С)
Тes
(С)
Комфортность P
(гПа)
Po
(гПа)
Тmin
(С)
Tmax
(С)
R
(мм)
R24
(мм)
S
(см)
00 15.09 Ю 2 20 км ясно +5.7 +3.8 88 +3 +3 1023.2 1003.6
03 15.09 Ю 1 20 км 6/3 600 м
[Sc Ac trans]
+4.8 +3.1 89 +3 +3 1023.4 1003.7
06 15.09 З 3 18 км ясно +12.8 +3.4 53 +12 +14 1023.5 1004.4 +4.5
12 15.09 СЗ 3 25 км 8/3 1000 м
[Cu hum Cs]
+19.2 +3.5 35 +20 +23 1020.5 1001.8
15 15.09 З 4 26 км 8/0
[Cs]
+18.6 +2.9 35 +19 +19 1019.0 1000.3
18 15.09 З 1 20 км 8/0
[As trans Cs]
+13.2 +3.1 50 +14 +14 1019.0 1000.0 +20.4
21 15.09 штиль 0 20 км 8/0
[Ac As]
+9.3 +3.5 67 +9 +9 1017.6 998.3
00 16.09 Ю 2 20 км 9/0
[As trans Cs]
+12.3 +3.3 54 +12 +12 1015.6 996.6
03 16.09 Ю 2 20 км 6/0
[Ac As Cs]
+11.6 +4.0 60 +11 +11 1013.1 994.1
06 16.09 ЮЗ 3 23 км 3/0
[Ac lent Ci fib]
+15.7 +4.4 47 +15 +17 1011.4 992.7 +9.3
09 16.09 З 5 24 км 3/0
[Ac lent Ci fib]
+21.7 +6.1 36 +22 +26 комфорт 1009.2 990.9
12 16.09 З 6 26 км 9/8 600 м
[Sc Ac trans]
+23.4 +6.0 32 +24 +24 комфорт 1007.5 989.3
15 16.09 З 5 26 км 9/8 600 м
[Sc Ac trans]
+21.8 +7.9 41 +23 +23 комфорт 1007.1 988.8
18 16.09 З 1 20 км 1/1 600 м
[Sc]
+16.3 +7.8 57 +17 +17 1007.8 989.2 +25.0
21 16.09 З 1 20 км 8/3 600 м
[Sc Ac trans]
+12.5 +7.6 72 +13 +13 1007.7 988.8
00 17.09 З 1 20 км 10/6 600 м
[Sc Ac und]
+13.8 +8.9 72 +14 +14 1006.8 988.0
03 17.09 З 2 20 км 3/1 600 м
[Sc Ac trans]
+12.5 +4.4 58 +12 +12 1006.6 987.8
06 17.09 З 2 21 км 8/4 600 м
[Sc Ac trans]
+13.0 +5.1 59 +12 +14 1007.3 988.5 +11.0
09 17.09 З 4 23 км 9/3 600 м
[Sc Ac As]
+16.6 +4.6 45 +16 +18 1007.0 988.4
12 17.09 З 4 24 км 8/0
[Ac As Ci fib]
+18.6 +2.4 34 +19 +20 1006.1 987.7
15 17.09 З 3 22 км 8/0
[Ac As]
+17.8 +3.0 37 +18 +18 1005.2 986.7
18 17.09 З 2 20 км 3/0
[Ac As]
+12.3 +1.6 48 +12 +12 1006.6 987.7 +22.5
21 17.09 ЮЗ 1 20 км 6/0
[Ci fib]
+7.0 +1.9 70 +6 +6 1006.9 987.7
00 18.09 Ю 1 20 км 3/0
[Ci fib]
+6.3 +3.0 79 +5 +5 1005.9 986.7
03 18.09 Ю 2 20 км 9/6 600 м
[Sc Ac As]
+7.2 +3.7 78 +5 +5 1003.6 984.5
06 18.09 ЮЗ 3 18 км 10/10 600 м
[Cb cap]
+12.4 +6.8 69 +11 +11 1002.7 983.9 +5.5
09 18.09 Ю 5 20 км {ливн. осадки} 9/8 600 м
[Cb cap Ac As Ci fib]
+13.4 +9.9 79 +11 +12 1001.4 982.7
12 18.09 З 8 23 км {ливн. осадки} 8/5 600 м
[Cb cap Ci fib]
+14.8 +2.9 45 +13 +13 1001.6 983.0
15 18.09 З 8 25 км в посл. час ливневой дождь 8/6 600 м
[Cb cap Ci fib]
+12.3 0.0 43 +10 +10 1004.3 985.5
18 18.09 З 6 20 км ясно +8.6 +4.0 73 +5 +5 1007.0 987.9 +16.0 4
21 18.09 З 4 20 км 3/0
[Ac As Ci fib]
+8.1 +4.0 75 +5 +5 1008.9 989.7
00 19.09 З 4 20 км 3/0
[Ac trans]
+7.0 +4.0 81 +3 +3 1011.2 991.9
03 19.09 З 4 20 км 10/10 600 м
[Cb cap]
+8.2 +6.0 86 +5 +5 1013.1 993.8
06 19.09 З 4 26 км 9/8 600 м
[Sc Ac trans]
+9.8 +5.7 76 +7 +7 1015.4 996.2 +6.0
09 19.09 З 4 26 км 6/6 600 м
[Cu hum]
+13.8 +5.0 55 +13 +15 1016.1 997.2
12 19.09 З 4 27 км 9/9 600 м
[Cb cap]
+13.7 +5.2 56 +12 +13 1016.2 997.2
18 19.09 З 1 20 км {ливн. осадки} 1/1 600 м
[Sc]
+8.2 +5.3 82 +7 +7 1017.8 998.5 +15.5 0.0
00 20.09 З 1 20 км 4/0
[Ac trans]
+6.7 +4.9 88 +6 +6 1017.7 998.3
06 20.09 З 1 19 км 9/8 600 м
[Sc Ac As]
+8.0 +6.0 87 +7 +8 1017.1 997.8 +5.2
12 20.09 З 1 26 км 8/8 600 м
[Cb cap]
+15.3 +2.6 42 +16 +17 1014.6 995.8
18 20.09 С 2 20 км 4/0
[Ac As]
+10.0 +3.1 62 +9 +9 1015.9 996.7 +15.8
00 21.09 З 2 20 км 8/3 600 м
[Sc Ac As]
+6.8 +4.0 82 +5 +5 1016.2 996.8
06 21.09 З 2 22 км 10/6 600 м
[Sc Ac As]
+7.2 +4.9 85 +5 +5 1017.5 998.1 +4.5
12 21.09 СЗ 4 25 км {ливн. осадки} 10/6 600 м
[Cb calv Ac As]
+11.9 +0.3 45 +10 +11 1017.7 998.6
18 21.09 З 3 20 км 10/6 600 м
[Sc Ac As]
+7.4 +0.9 63 +5 +5 1017.8 998.4 +13.5 0.0

 

Местоположение метеостанции Золочев (Львовская область, Украина): широта 50.30 долгота 35.95 высота над уровнем моря 158 м.

В архиве по умолчанию представлена погода в Золочеве за последнюю неделю. Архивные данные за месяц целиком и за предыдущие месяцы, начиная с января 2011 года, Вы можете получить, выбрав интересующий диапазон дат из раскрывающегося списка и нажав кнопку "Ввод!".


*Определитесь, кто Вы:
робот инопланетянин человек

Внимание! Время в таблицах - всемирное. Для получения местного времени необходимо прибавить поправку, которая равна 2 ч.

Смотрите также архив погоды в соседних городах и на ближайших метеорологических станциях:

Погода в Боходухове (Харьковская область, Украина) (32 км)
Погода в Харькове (Харьковская область, Украина) (39 км)
Погода в Готне (Белгородская область, Россия) (57 км)
Погода в Белгороде (Белгородская область, Россия) (58 км)
Погода в Коломаке (Харьковская область, Украина) (72 км)
Погода в Комсомольском (Донецкая область, Украина) (88 км)
Погода в Обояни (Курская область, Россия) (103 км)
Погода в Великом Бурлуке (Харьковская область, Украина) (105 км)
Погода в Краснограде (Харьковская область, Украина) (108 км)
Погода в Лебедине (Сумская область, Украина) (109 км)

Пояснения к столбцам:

Ветер - указаны скорость ветра в м/с - средняя за 10 мин, порывы в срок и между сроками (в фигурных скобках) и направление, откуда дует ветер: С - северный, СВ - северо-восточный, В - восточный, ЮВ - юго-восточный, Ю - южный, ЮЗ - юго-западный, З - западный, СЗ - северо-западный.
Видимость - горизонтальная дальность видимости в метрах или километрах. При видимости от 1 до 10 км при отсутствии осадков обычно наблюдается дымка, при ухудшении видимости до 1 км и менее - туман. В сухую погоду видимость может ухудшаться дымом, пылью или мглою.
Явления - указаны атмосферные явления, наблюдавшиеся в срок или в последний час перед сроком; фигурными скобками обозначены явления, наблюдавшиеся между сроками (за 1-3 часа до срока); квадратными скобками обозначены град или гололедные отложения с указанием их диаметра в мм.
Облачность - указаны через наклонную черту общая и нижняя облачность в баллах и высота нижней границы облаков в метрах; квадратными скобками обозначены формы облаков: Ci - перистые, Cs - перисто-слоистые, Cc - перисто-кучевые, Ac - высококучевые, As - высокослоистые, Sc - слоисто-кучевые, Ns - слоисто-дождевые, Cu - кучевые, Cb - кучево-дождевые. Подробнее классификацию облаков см. в Атласе облаков (PDF).
T - Температура воздуха - температура, измеренная на высоте 2 м над землей.
Td - Температура точки росы - температура, при понижении до которой содержащийся в воздухе водяной пар достигнет насыщения.
f - Относительная влажность воздуха - влажноcть воздуха, измеренная на высоте 2 м над землей.
Te - Эффективная температура - температура, которую ощущает одетый по сезону человек в тени. Характеристика душности погоды. При расчете учитывается влияние влажности воздуха и скорости ветра на теплоощущения человека.
Tes - Эффективная температура на солнце - температура, которую ощущает человек, с поправкой на солнечный нагрев. Характеристика знойности погоды. Зависит от высоты солнца над горизонтом, облачности и скорости ветра. Ночью, в пасмурную погоду, а также при ветре 12 м/с и более поправка равна нулю.
P - Атмосферное давление - приведенное к уровню моря атмосферное давление.
Po - Атмосферное давление - измеренное на уровне метеостанции атмосферное давление.
Tmin - Минимальная температура - минимум температуры воздуха на высоте 2 м над землей.
Tmax - Максимальная температура - максимум температуры воздуха на высоте 2 м над землей.
R - Количество осадков - Количество выпавших осадков за период времени, мм. При наведении курсора мыши на число - период времени, за который выпало указанное количество осадков.
R24 - Количество осадков - Количество выпавших осадков за 24 часа, мм.
S - Снежный покров - Высота снежного покрова, см. При наведении курсора мыши на число - состояние снежного покрова и степень покрытия местности в баллах.